GEFSMA_con_prob3kmehi_330.txt.gz
EHI
3 3 3 2 1 0 0 0 0 1 2 2 2 3 4 4 4 3 5 11 18 19 16 13 11 11 10 10 10 9 7 5 4 3 3 3 3 3 4 4 3 2 1
3 3 3 2 1 1 1 1 1 1 2 2 2 2 3 3 3 2 4 8 13 14 14 14 13 13 12 11 11 10 8 6 5 4 3 3 3 3 3 4 3 2 2
2 3 2 1 1 1 2 2 2 2 3 2 1 1 1 2 2 2 2 3 5 7 10 14 15 15 14 12 11 10 9 8 7 5 4 3 3 3 3 3 3 2 1
1 1 1 1 0 0 1 1 1 1 1 1 0 0 0 1 3 2 1 1 2 3 6 12 15 16 15 13 10 9 9 9 8 6 5 4 4 4 3 3 2 1 0
1 1 0 0 0 0 1 0 0 0 0 0 0 0 0 1 3 3 1 1 2 3 4 8 12 13 15 16 13 11 11 12 10 8 7 6 6 5 4 4 3 1 0
1 0 0 0 0 0 0 0 0 0 0 0 0 0 0 1 2 3 3 2 3 4 4 6 7 8 12 16 16 13 13 14 13 10 9 7 7 6 6 6 5 3 1
0 0 0 0 0 0 0 0 0 0 0 0 0 0 0 1 2 3 3 3 4 5 5 5 5 5 7 11 14 13 12 13 12 11 10 9 8 7 7 6 6 4 3
1 0 0 0 0 0 0 0 0 0 0 0 0 0 0 1 1 1 2 3 4 5 5 5 5 5 4 5 7 10 11 11 10 10 10 9 9 8 8 7 6 4 3
2 1 1 0 1 1 1 0 0 0 0 0 0 0 1 1 1 1 1 1 3 4 5 5 5 5 4 3 4 6 9 10 9 9 10 10 9 8 8 7 5 3 3
3 3 1 1 2 3 2 1 1 1 1 1 1 1 1 2 2 2 1 1 1 2 4 5 5 5 5 3 2 3 6 8 7 8 10 10 10 8 8 6 4 3 3
3 2 1 1 3 4 4 3 3 4 3 3 2 2 3 3 4 4 2 1 1 1 2 4 5 5 5 3 2 3 5 5 6 7 9 9 9 9 9 7 5 4 4
1 1 0 0 1 3 5 5 5 5 5 4 3 4 4 4 5 5 4 2 1 0 1 1 3 3 4 4 5 5 5 5 5 6 7 7 8 9 10 8 6 5 4
0 0 0 0 0 2 4 5 6 6 6 6 5 5 5 6 6 6 5 3 1 0 0 0 1 1 3 5 5 6 5 4 4 5 5 4 5 7 7 7 7 6 5
0 0 1 1 1 3 5 6 7 8 9 8 8 7 6 7 7 7 6 4 2 2 1 0 0 0 2 3 4 4 4 3 3 4 4 3 3 4 4 5 6 6 6
0 0 2 3 3 5 6 7 7 9 10 10 9 8 7 7 8 9 8 7 6 5 4 2 0 0 1 2 2 2 3 3 3 3 3 3 2 1 1 2 4 5 5
1 1 1 2 4 6 8 7 6 8 9 10 9 8 7 8 8 9 9 7 7 7 6 4 2 1 1 2 2 2 3 3 3 2 2 1 1 0 0 0 1 2 2
2 2 2 2 4 7 8 6 6 7 8 8 9 8 8 8 7 7 7 5 5 6 6 5 3 3 3 3 4 4 3 3 2 1 1 0 0 0 0 0 0 0 0
3 3 4 5 6 8 8 7 6 6 6 7 8 8 8 7 5 5 6 5 4 5 6 5 4 4 5 5 4 4 3 3 3 1 0 0 0 0 0 0 0 0 0
5 5 6 8 10 10 10 9 7 5 6 7 7 7 7 6 5 5 6 6 4 4 5 4 3 5 5 4 3 2 2 3 3 2 0 0 0 0 0 0 0 0 0
9 9 10 11 12 12 12 11 9 7 6 5 5 4 5 6 6 6 6 6 5 4 4 4 4 5 4 2 1 1 1 1 1 1 1 1 0 0 0 0 0 0 0
13 13 13 12 12 11 10 10 9 8 6 4 2 2 3 5 5 5 5 5 5 4 4 5 5 4 4 3 2 1 1 1 1 2 2 1 0 0 0 0 0 0 0
14 13 12 12 11 9 8 7 7 7 6 4 2 2 3 5 5 4 3 3 3 4 4 5 5 4 5 5 4 3 2 2 2 3 3 1 0 0 0 0 0 0 0
13 12 12 12 10 7 5 3 3 4 4 4 3 3 5 5 5 5 4 2 2 2 2 3 3 3 4 5 4 3 2 1 1 2 2 1 0 0 0 0 0 0 0
13 13 13 12 10 6 3 1 0 1 3 3 2 3 4 5 5 5 4 2 2 1 1 1 1 2 2 2 1 1 1 0 0 1 1 0 0 0 0 0 0 0 0
15 14 13 13 10 6 3 1 0 0 1 2 2 2 2 3 3 2 2 2 2 2 2 1 1 1 1 0 0 0 0 0 0 0 0 0 0 0 0 0 0 0 0
16 14 13 13 11 8 4 2 1 0 0 1 2 2 2 2 1 0 1 2 2 2 2 1 0 0 0 0 0 0 0 0 0 0 0 0 0 0 0 0 0 0 0

GEFSMA_con_prob3kmehi_336.txt.gz
EHI
2 2 2 2 2 1 0 0 0 1 1 1 0 0 1 2 2 1 0 1 5 8 9 10 11 9 7 5 4 4 4 3 4 4 4 4 4 3 3 2 1 0 0
1 1 1 1 1 0 0 0 0 0 0 0 0 0 0 1 1 0 0 1 4 8 11 13 13 10 8 7 6 5 4 3 4 4 4 4 3 3 3 3 2 1 0
0 0 0 0 0 0 0 0 0 0 0 0 0 0 0 0 0 0 0 0 1 5 10 13 14 13 11 10 9 8 6 4 4 4 4 4 5 4 3 3 2 1 1
0 0 0 0 0 0 0 0 0 0 0 0 0 0 0 0 0 0 0 0 0 3 6 10 13 14 13 12 12 9 8 8 6 5 6 7 8 6 5 4 3 1 1
0 0 0 0 0 0 0 0 0 0 0 0 0 0 0 0 0 0 1 0 0 2 4 6 9 13 13 12 12 10 10 11 10 9 8 9 9 8 8 7 5 3 3
0 0 0 0 0 0 0 0 0 1 0 0 0 0 0 0 0 0 0 0 0 1 3 3 5 7 9 9 10 10 10 11 12 11 11 11 10 9 9 9 8 6 5
0 0 0 0 0 0 0 0 0 0 0 0 0 0 0 0 0 0 0 0 0 1 2 2 1 2 3 4 6 7 8 10 11 13 13 13 12 10 9 9 8 7 6
0 0 0 0 0 0 0 0 0 0 0 0 0 0 0 0 0 0 0 0 0 0 1 1 0 0 0 1 2 3 5 7 9 12 13 13 13 11 10 9 8 7 7
0 0 0 0 0 0 0 0 0 0 0 0 0 0 0 0 0 0 0 1 1 0 0 0 0 0 0 1 1 1 2 4 7 8 11 13 13 11 9 8 7 6 6
0 0 0 0 0 0 0 0 0 1 1 2 1 1 1 1 0 0 1 2 1 0 0 0 1 1 1 1 1 1 1 2 3 5 7 11 12 10 8 6 6 5 5
0 0 0 0 0 0 0 0 0 2 4 5 4 4 3 2 1 1 2 3 1 0 0 0 1 3 3 3 2 1 0 0 1 2 5 7 8 7 5 5 5 5 5
0 0 0 0 0 0 0 0 0 1 4 5 6 6 5 4 3 3 4 3 1 0 0 0 2 3 4 4 2 0 0 0 0 1 2 4 5 4 4 4 4 4 4
0 0 0 1 1 0 0 0 0 1 3 5 6 6 6 5 4 4 5 4 2 1 1 1 3 3 3 2 1 0 0 0 0 0 0 1 2 2 2 3 3 3 3
1 1 1 1 1 1 1 1 1 1 3 5 5 6 6 6 6 6 6 5 4 3 2 2 4 3 2 1 1 1 1 1 0 0 0 0 0 1 1 1 2 2 2
1 1 1 1 2 2 2 2 2 3 3 4 4 4 4 4 6 7 8 7 6 5 4 3 3 3 2 2 1 2 3 2 1 0 0 0 0 0 0 0 1 1 1
2 2 2 2 3 3 3 3 3 3 3 3 3 3 4 4 5 7 8 8 8 7 6 5 3 2 2 2 1 2 3 2 1 0 0 0 0 0 0 0 0 0 0
2 3 3 3 3 3 2 3 4 4 4 3 3 3 4 5 6 6 7 8 8 8 8 7 4 3 2 1 1 1 1 1 1 0 0 0 0 0 0 0 0 0 0
1 1 3 3 3 3 2 3 4 5 4 3 3 3 4 5 5 5 5 6 8 9 9 7 4 3 1 1 1 1 0 0 0 0 0 0 0 0 0 0 0 0 0
1 1 3 4 3 3 3 3 4 4 4 2 2 2 2 3 3 2 3 4 7 9 8 6 4 2 2 2 2 1 1 2 1 0 0 0 0 0 0 0 0 0 0
2 2 3 4 3 2 3 3 3 3 2 1 0 1 1 1 1 2 3 4 7 8 8 6 4 2 2 4 4 3 1 2 2 1 0 0 1 1 0 0 0 0 0
1 2 3 4 4 3 2 2 2 1 1 0 0 1 2 2 1 2 3 4 6 7 7 6 5 3 3 5 5 4 2 1 1 0 0 0 1 1 0 0 0 0 0
1 1 2 4 4 3 1 1 1 1 1 1 1 3 3 3 2 1 2 2 3 5 5 6 6 5 4 5 4 4 3 2 1 0 0 0 1 1 0 0 0 0 0
2 2 3 4 4 3 1 0 0 1 2 2 3 4 4 3 3 2 2 1 2 2 3 4 6 6 4 4 3 3 3 2 1 0 0 0 1 1 0 0 0 0 0
3 4 4 5 5 4 2 0 0 0 1 1 2 3 3 3 3 3 3 3 2 2 1 2 4 4 3 2 2 2 1 1 0 0 0 1 2 2 1 0 0 0 0
3 4 5 6 6 5 2 1 1 2 2 2 1 1 2 2 2 2 2 3 3 3 1 1 1 1 1 1 1 1 0 0 0 0 1 2 2 2 1 0 0 0 0
3 3 5 6 7 6 3 2 2 3 4 3 2 1 1 1 1 1 1 3 3 3 2 2 1 0 0 0 0 0 0 0 0 0 1 2 2 1 1 1 0 0 0

GEFSMA_con_prob3kmehi_342.txt.gz
EHI
1 1 0 0 0 0 1 1 2 3 3 2 1 0 0 0 0 0 1 5 8 7 7 8 11 15 14 11 9 9 9 8 7 7 8 9 8 7 7 7 7 6 6
1 0 0 0 0 0 0 1 2 3 3 2 1 0 0 1 1 1 1 3 7 9 9 9 10 13 13 11 9 8 8 8 7 7 7 7 7 7 7 7 7 7 6
0 0 0 0 0 0 0 1 3 3 3 2 1 0 0 1 2 1 0 2 5 8 10 11 10 11 12 11 9 9 9 9 8 8 8 8 8 7 7 7 7 6 6
0 0 0 0 0 0 1 2 3 3 3 2 1 0 0 1 2 1 0 1 3 5 8 10 10 10 11 10 10 11 12 11 10 10 11 10 9 8 8 7 6 5 5
0 0 0 0 0 1 2 3 3 3 3 2 0 0 0 0 1 0 0 1 3 3 5 7 8 10 11 10 10 12 12 11 10 10 11 11 10 9 10 9 7 6 6
0 0 0 1 1 2 3 3 3 3 3 2 1 0 0 1 1 1 1 2 3 3 4 5 7 9 10 10 10 11 10 9 8 8 9 9 10 11 11 10 8 7 6
0 0 1 2 3 3 3 3 3 4 4 4 2 1 0 1 3 3 3 4 3 3 4 6 8 9 8 8 8 9 8 7 7 8 8 8 10 11 11 11 9 8 7
0 1 2 3 4 3 3 3 3 3 4 4 4 2 0 2 3 3 4 5 4 4 4 6 8 9 8 6 6 7 7 6 6 7 7 7 9 10 11 11 11 10 9
0 1 3 4 4 4 3 4 3 3 3 5 6 5 3 3 4 3 3 5 5 5 4 5 6 8 8 6 5 5 6 5 5 5 5 5 6 7 9 10 11 11 9
1 2 4 4 4 4 4 5 4 4 5 6 8 8 7 7 7 5 4 4 5 5 5 4 4 5 6 6 5 5 4 3 3 3 3 3 4 4 7 10 10 9 9
4 4 5 6 6 6 6 5 5 5 6 8 9 10 10 10 11 9 5 4 5 5 5 4 4 4 5 6 6 4 2 1 1 1 2 3 3 3 5 8 9 9 9
6 6 7 8 9 8 7 5 5 4 5 7 9 10 10 10 11 9 6 4 3 3 5 5 4 5 6 6 5 3 1 0 0 0 1 1 2 3 4 6 8 9 10
8 7 8 9 9 7 6 6 6 4 4 5 7 9 10 9 8 8 6 4 2 2 4 6 5 5 6 5 4 2 0 0 0 0 0 0 1 1 2 4 6 8 9
9 9 10 10 9 7 6 8 8 7 6 6 6 8 10 9 7 7 7 5 3 3 5 7 6 5 4 4 3 2 1 1 0 0 0 0 0 0 1 1 3 5 6
11 12 12 10 9 9 9 9 9 10 10 10 9 11 12 10 8 8 7 6 5 5 7 9 9 6 3 3 3 3 2 2 1 0 0 0 0 0 0 0 0 1 2
16 16 14 11 10 11 11 10 10 10 12 13 12 13 13 10 8 7 6 6 7 9 9 9 10 7 5 4 4 4 3 3 1 1 0 0 0 0 0 0 0 0 0
19 18 16 13 12 11 12 12 11 9 10 11 12 12 12 11 10 8 5 5 8 11 11 10 9 8 8 7 6 5 4 3 3 3 1 0 0 0 0 0 0 0 0
21 20 19 17 14 13 14 14 12 10 10 11 11 11 12 13 13 11 7 6 8 12 13 11 10 9 8 8 8 7 5 5 5 5 3 1 0 0 0 0 0 0 0
21 21 21 19 16 14 14 14 13 12 12 12 12 13 13 13 14 12 10 8 10 12 13 12 11 10 7 7 9 9 7 7 6 5 3 1 0 0 0 0 0 0 0
19 19 21 21 18 15 14 14 15 15 14 13 13 13 11 11 11 11 10 10 11 12 12 11 10 9 8 7 9 10 9 8 7 6 4 2 0 0 0 0 0 0 0
16 17 19 21 19 14 11 11 12 13 13 13 12 11 10 9 9 8 7 8 9 10 11 10 10 9 9 9 9 9 9 8 8 7 5 3 1 0 0 0 0 0 0
17 17 17 18 17 12 8 6 6 8 11 13 13 12 11 9 8 6 4 3 4 7 9 10 11 11 11 11 11 9 8 8 7 7 7 5 2 1 0 0 0 0 0
17 16 16 17 17 13 7 3 3 6 12 15 15 14 13 11 9 8 5 3 4 5 6 9 11 12 11 12 13 12 10 9 8 8 8 6 3 1 0 0 0 0 0
13 14 16 17 17 14 9 4 3 8 13 15 15 15 15 14 11 9 7 6 8 8 6 6 9 10 8 8 11 13 13 11 9 8 8 6 2 0 0 0 0 0 0
12 13 14 16 16 14 10 5 4 8 12 13 13 12 13 12 9 7 8 11 13 11 8 6 6 5 3 3 6 11 12 11 8 8 8 6 3 1 1 2 2 1 1
13 13 14 15 15 12 9 5 4 7 10 12 11 9 8 8 6 5 8 13 14 12 9 7 4 1 0 0 2 7 11 10 8 7 7 7 4 2 1 3 4 3 1

GEFSMA_con_prob3kmehi_348.txt.gz
EHI
6 8 11 13 13 13 13 13 14 14 12 8 7 7 7 5 4 3 5 12 19 20 21 21 19 15 15 16 16 14 12 10 8 7 6 7 8 8 8 7 6 7 7
8 8 9 11 10 10 13 14 13 12 11 8 8 9 9 8 7 5 5 9 13 18 22 24 22 19 18 18 15 13 12 11 9 7 7 7 7 8 9 8 7 7 8
10 8 7 7 7 8 12 15 13 10 8 7 8 10 12 12 10 8 8 9 10 15 22 26 26 24 21 18 15 13 13 12 10 8 7 7 7 8 9 9 8 9 9
10 8 6 5 6 8 11 13 13 11 10 8 9 11 14 15 14 12 13 13 14 17 20 24 26 25 22 18 16 15 14 14 12 10 9 8 7 8 9 9 8 9 9
8 8 6 5 6 8 10 10 11 13 13 12 11 10 12 15 16 16 15 16 18 20 19 20 23 23 22 21 18 16 14 14 13 13 12 11 9 8 7 7 7 8 9
10 10 9 7 7 8 8 8 10 12 14 12 10 9 9 11 16 18 17 16 17 20 20 21 22 21 20 20 19 15 13 13 14 15 14 13 12 9 6 5 7 7 7
15 14 12 11 11 12 10 8 9 11 11 10 9 8 8 9 13 17 17 16 15 16 20 24 24 21 19 18 17 15 13 15 16 15 13 13 12 10 6 5 6 5 5
18 18 17 14 15 16 14 11 10 10 10 9 10 10 9 9 11 13 13 14 14 15 18 24 27 27 24 19 17 17 18 19 18 15 13 11 11 8 6 5 5 5 4
19 22 20 17 17 19 16 13 12 11 10 9 11 11 10 10 10 9 10 11 14 15 17 18 22 28 29 25 21 19 20 20 19 17 15 13 11 8 6 6 6 6 6
22 23 22 20 20 20 17 14 13 13 12 11 11 11 11 10 9 7 7 9 13 16 17 15 16 22 26 28 25 20 18 16 16 16 15 13 10 8 7 7 7 8 7
27 26 25 23 23 23 20 17 16 17 17 14 11 9 8 7 6 5 5 6 9 13 16 15 14 16 21 23 21 17 13 11 10 10 11 9 8 7 7 7 7 8 7
31 30 29 27 26 26 24 22 22 23 22 16 12 10 6 4 4 4 4 3 4 8 13 15 15 16 16 16 14 12 9 6 4 4 5 5 5 5 5 5 6 6 6
27 30 30 29 29 28 26 25 26 25 22 17 14 11 8 6 5 5 5 4 3 5 8 11 15 17 14 13 12 9 6 3 1 1 1 1 2 2 2 3 3 4 4
25 29 31 29 29 28 27 27 28 26 23 19 15 13 12 11 10 9 9 7 5 3 5 8 12 15 16 15 13 9 7 3 1 0 0 0 0 0 0 1 1 2 2
26 30 30 28 27 26 27 28 29 27 25 21 18 16 14 13 13 13 14 11 7 4 5 8 10 12 15 15 10 9 10 6 2 1 1 0 0 0 0 0 0 1 1
27 28 29 28 26 25 25 27 27 25 24 23 21 18 15 13 13 14 15 13 9 7 7 9 9 10 10 8 7 10 12 9 5 3 2 1 0 0 0 0 0 0 0
27 27 29 29 28 26 26 25 23 21 20 21 21 19 16 15 16 16 15 12 10 10 10 10 10 9 8 7 9 11 11 9 6 4 3 2 1 0 0 0 0 0 0
27 28 29 29 27 25 26 25 23 19 17 17 18 17 18 19 20 19 17 14 11 11 11 12 11 10 9 10 12 12 10 7 5 3 3 3 2 0 0 0 0 0 0
26 26 27 25 23 22 23 24 23 20 17 15 16 17 18 20 21 20 20 17 13 11 11 12 11 11 10 10 11 10 9 8 5 3 3 3 2 1 0 0 0 0 0
24 24 24 21 20 19 20 21 22 21 18 16 16 17 17 17 17 17 17 17 14 12 11 11 11 12 11 11 11 11 10 10 8 6 5 4 3 2 1 0 0 0 0
23 23 23 21 19 18 16 16 18 19 18 17 15 15 14 13 11 11 11 12 11 11 11 10 10 11 13 14 14 13 11 11 11 10 9 6 4 4 3 2 1 0 0
25 24 24 23 19 15 11 9 12 15 17 17 15 13 12 10 8 7 7 6 6 7 7 8 9 10 12 14 16 15 12 11 12 13 12 9 5 5 5 4 2 0 0
25 24 24 22 17 11 6 5 6 10 12 14 14 13 11 8 6 6 6 5 4 4 4 6 8 10 11 13 14 15 14 12 12 12 11 8 6 5 5 3 1 0 0
22 22 21 18 14 9 4 2 2 4 6 9 11 13 11 7 5 5 5 6 7 6 4 4 6 9 10 10 12 14 13 12 11 11 11 9 7 4 3 2 1 0 0
18 17 15 14 12 8 3 0 1 2 3 5 7 8 8 6 4 3 4 6 7 7 5 3 4 6 7 7 8 11 13 13 11 11 12 11 8 4 3 3 2 1 0
15 14 12 12 10 6 2 0 1 2 3 4 4 5 5 4 4 3 4 5 6 5 5 4 4 4 5 5 5 9 13 13 12 11 12 11 8 4 2 3 3 1 0

GEFSMA_con_prob3kmehi_354.txt.gz
EHI
0 0 0 0 0 0 0 0 0 0 0 0 0 0 0 0 1 2 2 6 14 18 18 18 16 15 15 14 11 9 8 7 5 4 3 2 1 0 0 0 0 0 0
0 0 0 0 0 0 0 0 0 0 0 0 0 0 0 1 2 2 1 5 11 14 15 16 17 18 17 15 13 11 10 9 7 5 3 2 1 0 0 0 0 0 1
0 0 0 0 0 0 0 0 0 0 0 0 0 0 0 1 1 1 0 2 5 8 11 14 16 18 18 16 14 13 12 12 11 7 4 2 1 0 0 0 0 0 1
1 0 0 0 0 0 0 0 0 0 0 0 0 0 0 0 0 0 0 0 1 3 6 9 13 17 19 18 17 16 15 15 14 11 7 4 2 1 0 1 1 1 1
2 1 0 0 0 0 0 0 0 0 0 0 0 0 0 0 0 0 0 0 0 0 1 4 8 15 19 21 21 20 18 17 16 14 11 9 5 3 2 3 3 2 1
3 2 1 0 0 0 0 0 0 0 0 0 0 0 0 0 0 0 0 0 0 0 0 1 3 8 14 18 19 19 18 17 17 16 15 13 10 7 7 6 4 3 2
3 3 2 2 1 0 0 0 1 0 0 0 0 0 0 0 0 0 0 0 0 0 0 0 0 2 5 9 12 14 16 17 18 17 16 14 13 11 9 8 6 3 2
2 3 3 3 3 1 1 1 1 0 0 0 1 0 0 0 0 0 0 0 0 0 0 0 0 0 1 2 4 9 14 17 19 18 16 14 12 12 10 8 5 3 2
2 3 4 4 5 4 3 2 1 0 0 0 0 0 0 0 0 0 0 0 0 0 0 0 0 0 0 1 1 4 9 13 16 18 16 14 12 12 11 8 5 3 2
2 4 5 6 6 5 4 3 2 1 1 1 0 0 0 0 0 0 0 0 0 0 0 0 1 2 2 2 2 2 4 6 9 13 15 14 12 11 10 9 6 4 3
1 3 5 6 6 6 4 4 4 4 4 3 1 1 0 0 0 0 0 0 0 0 0 0 2 3 2 2 3 3 2 2 3 6 10 12 11 9 8 7 6 5 5
1 2 5 7 7 7 6 6 6 7 6 5 3 2 1 1 1 1 1 1 1 0 0 0 2 3 3 3 3 3 2 1 0 1 4 8 9 7 5 5 4 4 3
3 3 6 8 9 9 8 9 9 8 7 5 4 3 3 3 3 4 4 3 2 1 1 1 1 3 3 4 3 3 2 0 0 0 1 4 5 4 2 2 1 1 1
5 5 7 10 10 10 9 9 8 7 6 6 5 4 5 6 6 7 6 4 3 2 1 2 2 2 2 3 3 2 1 0 0 0 0 1 2 1 1 0 0 0 0
8 8 10 11 11 9 7 6 5 5 6 7 6 6 6 6 7 7 6 5 4 2 1 1 1 1 1 2 2 1 1 0 0 0 0 0 0 0 0 0 0 0 0
12 13 12 11 10 8 6 4 3 4 5 6 6 6 6 6 6 6 6 5 4 3 1 0 0 1 1 1 0 0 0 0 0 0 0 0 0 0 0 0 0 0 0
14 14 12 10 9 8 6 6 5 4 5 6 6 6 6 6 6 6 5 4 3 2 1 0 0 0 0 0 0 0 0 0 1 1 0 0 0 0 0 0 0 0 0
13 13 11 8 7 6 7 8 7 6 6 6 6 6 6 6 6 5 4 2 1 1 0 0 0 0 0 0 0 0 0 0 1 1 0 0 0 0 0 0 0 0 0
14 13 10 7 5 5 6 7 7 6 6 6 5 5 5 5 5 4 2 1 0 0 1 1 1 0 0 0 0 0 0 0 1 1 0 0 0 0 0 0 0 0 0
14 13 10 7 5 5 5 4 4 4 4 4 2 2 2 3 3 2 1 0 0 0 1 2 2 1 1 1 1 1 1 1 1 1 1 1 1 1 1 0 0 0 0
12 12 10 8 6 5 3 1 1 1 1 1 0 0 0 1 1 1 0 0 0 1 2 3 3 3 2 2 2 2 2 2 2 2 2 2 2 2 1 0 0 0 0
11 11 11 9 8 5 2 0 0 0 0 0 0 0 0 0 0 0 0 0 0 1 2 3 3 3 3 3 3 3 3 3 3 3 3 3 3 1 1 0 0 0 0
12 12 11 9 8 6 3 1 0 0 0 0 0 0 0 0 0 0 0 0 0 0 1 1 2 3 3 3 3 3 3 3 3 3 3 3 2 1 0 0 0 0 0
12 11 8 8 7 6 3 1 0 0 0 0 0 0 0 0 0 0 0 0 0 0 0 0 1 2 2 3 3 3 3 3 3 3 3 3 2 1 0 0 0 0 0
10 9 7 6 6 6 3 1 0 0 0 0 0 0 0 0 0 0 0 0 0 0 0 1 1 1 1 1 2 3 3 3 3 3 3 3 2 1 0 0 0 0 0
9 7 6 6 6 6 3 1 0 0 0 0 0 0 0 0 0 0 0 0 0 0 1 2 2 1 0 0 1 2 3 3 3 3 3 3 1 0 0 0 0 0 0

GEFSMA_con_prob3kmehi_360.txt.gz
EHI
0 0 0 0 0 0 0 0 0 0 0 0 0 0 0 0 0 0 0 1 2 2 3 4 5 6 6 5 4 4 3 2 2 1 0 0 0 0 0 0 0 0 0
0 0 0 0 0 0 0 0 0 0 0 0 0 0 0 0 0 0 0 0 1 1 3 3 4 6 6 5 4 5 5 4 3 2 1 0 0 0 0 0 0 0 0
0 0 0 0 0 0 0 0 0 0 0 0 0 0 0 0 0 0 0 0 0 1 2 3 4 5 5 5 5 6 6 5 5 4 2 1 0 0 0 0 0 0 0
0 0 0 0 0 0 0 0 0 0 0 0 0 0 0 0 0 0 0 0 0 0 1 2 2 3 4 4 5 6 6 6 6 5 3 1 0 0 0 0 0 0 0
0 0 0 0 0 0 0 0 0 0 0 0 0 0 0 0 0 0 0 0 0 0 0 1 1 2 3 4 6 7 6 4 4 5 5 4 2 0 0 0 0 0 0
1 1 1 1 0 0 0 0 0 0 0 0 0 0 0 0 0 0 0 0 0 0 0 0 0 1 2 3 6 7 5 3 3 4 7 8 7 3 1 0 0 0 0
1 2 2 1 0 0 0 0 0 0 0 0 0 0 0 0 0 0 0 0 0 0 0 0 0 0 0 1 2 4 4 4 3 4 8 11 11 6 2 0 0 0 0
0 1 1 1 0 0 0 0 0 0 0 0 0 0 0 0 0 0 0 0 0 0 0 0 0 0 0 0 1 1 2 3 4 5 7 11 11 7 3 1 1 0 0
0 0 0 0 0 0 0 0 0 0 0 0 0 0 0 0 0 0 0 0 0 0 0 0 0 0 0 1 1 0 1 1 3 4 6 8 9 6 3 2 2 1 0
0 0 0 0 0 0 0 0 0 0 1 1 1 0 0 0 0 0 0 0 0 0 0 0 0 0 0 0 0 0 0 1 1 2 3 6 7 6 4 3 2 1 0
0 0 0 1 1 1 1 0 0 1 2 2 2 1 0 0 0 0 0 0 0 0 0 0 0 0 0 0 0 0 0 0 0 0 1 3 5 6 4 3 2 2 2
0 0 0 1 2 2 2 1 1 2 3 3 3 2 1 1 0 0 0 0 0 1 1 1 1 1 1 1 0 0 0 0 0 0 0 1 2 4 3 1 1 2 3
0 0 0 1 2 3 3 3 3 3 3 4 3 3 3 2 1 1 1 1 1 2 2 2 2 2 2 2 1 0 0 0 0 0 0 0 0 1 1 0 0 1 1
2 2 1 1 1 2 3 3 3 3 4 4 4 3 3 4 3 3 3 2 3 3 2 1 2 2 2 1 1 0 0 0 0 0 0 0 0 0 0 0 0 0 0
5 5 3 2 2 2 2 3 3 3 3 4 3 3 4 5 5 5 4 3 4 3 1 0 1 1 0 0 0 0 0 0 0 0 0 0 0 0 0 0 0 0 0
6 6 4 3 2 1 1 1 2 2 2 2 2 2 3 4 6 6 5 4 4 3 1 0 0 0 0 0 0 0 0 0 0 0 0 0 0 0 0 0 0 0 0
6 6 5 4 3 1 0 0 1 1 1 1 1 1 2 3 5 6 5 4 4 3 2 0 0 0 0 0 0 0 0 0 0 0 0 0 0 0 0 0 0 0 0
6 6 5 4 3 1 0 0 0 0 0 0 1 2 3 3 4 4 4 3 3 4 3 2 1 0 0 0 0 0 0 0 0 0 0 0 0 0 0 0 0 0 0
6 5 4 4 3 2 1 0 0 0 0 0 1 2 2 2 2 2 2 1 2 3 3 3 2 1 1 0 0 0 0 1 1 1 1 1 1 0 0 0 0 0 0
4 4 4 4 4 2 1 0 0 0 0 0 1 1 1 1 1 1 0 0 1 1 1 2 3 2 2 1 1 1 1 2 2 2 2 2 2 1 1 0 0 0 0
3 3 4 5 4 2 1 0 0 0 0 0 0 0 0 0 0 0 0 0 0 0 0 1 1 3 3 3 2 2 3 3 3 3 3 3 3 3 2 1 1 1 0
4 4 5 6 4 2 1 0 0 0 0 0 0 0 0 0 0 0 0 0 0 0 0 0 1 2 3 3 3 3 3 3 3 3 3 3 3 3 3 2 2 1 1
5 5 6 6 4 2 0 0 0 0 0 0 0 0 0 0 0 0 0 0 0 0 0 0 1 2 2 3 2 2 3 3 3 3 3 3 3 3 3 3 1 1 0
6 6 6 5 4 1 0 0 0 0 0 0 0 0 0 0 0 0 0 0 0 0 0 0 0 1 1 1 1 1 2 3 3 3 3 3 3 3 3 2 1 0 0
6 6 5 4 3 2 1 0 0 0 0 0 0 0 0 0 0 0 0 0 0 0 0 0 0 0 0 0 0 1 2 3 3 3 3 3 3 2 1 1 0 0 0
6 5 4 4 3 2 1 0 0 0 0 0 0 0 0 0 0 0 0 0 0 0 0 0 0 0 0 0 0 0 1 3 3 3 3 3 3 1 0 0 0 0 0

GEFSMA_con_prob3kmehi_366.txt.gz
EHI
0 1 1 1 1 2 2 1 0 0 0 0 0 0 0 0 0 1 2 2 3 3 2 2 3 3 2 1 1 2 3 2 1 0 0 0 0 0 0 0 0 0 0
0 0 0 0 0 1 1 1 0 0 0 0 0 0 0 0 0 0 1 1 2 3 3 2 3 3 1 0 1 1 3 2 1 0 0 0 0 0 0 0 0 0 0
0 0 0 0 0 0 0 0 0 0 0 0 0 0 0 0 0 0 0 0 1 2 3 3 3 3 1 1 2 3 4 4 3 2 2 2 1 0 0 0 0 0 0
0 0 0 0 0 0 0 0 0 0 0 0 0 0 0 0 0 0 0 1 3 3 3 3 3 3 2 3 4 5 6 6 6 6 7 6 3 1 0 0 0 0 0
0 0 0 0 0 0 0 0 0 1 1 0 0 0 0 0 0 0 0 2 3 3 2 1 1 1 2 2 3 4 5 6 8 8 9 10 8 5 3 1 0 0 0
0 1 1 2 1 1 0 0 1 2 2 1 0 0 0 1 0 0 0 1 1 1 1 1 1 2 1 1 1 1 2 4 6 8 9 11 11 9 8 5 1 0 0
1 2 4 4 3 2 1 1 1 3 3 3 1 0 0 1 1 0 0 0 0 0 0 2 3 4 2 0 0 0 1 2 5 6 7 8 8 10 11 9 4 1 1
3 3 4 4 3 3 3 2 3 3 3 3 2 1 2 3 3 2 0 0 0 0 0 1 2 3 2 1 0 0 0 1 2 4 4 5 5 7 9 9 7 4 3
3 3 3 4 4 4 4 3 3 4 4 4 4 4 5 6 6 4 1 1 0 0 0 0 1 2 3 2 1 1 0 0 0 2 3 4 4 6 7 7 7 6 4
3 3 4 6 6 6 6 5 6 6 5 5 6 7 7 7 7 5 3 2 1 0 0 0 0 2 3 4 3 2 1 0 0 1 3 3 4 5 6 7 8 6 4
5 6 8 9 9 9 8 8 9 9 7 7 8 9 8 7 7 5 4 3 1 1 0 1 1 1 2 3 4 3 1 0 0 0 1 1 1 3 4 6 9 8 6
9 10 11 12 12 11 10 10 11 10 9 9 9 9 9 8 6 4 3 3 3 2 2 2 3 2 1 2 4 3 1 0 0 0 0 0 0 1 2 4 8 9 10
12 14 14 14 14 13 12 12 12 12 12 11 10 9 9 7 5 4 3 3 3 3 2 3 5 5 3 2 3 3 1 0 0 0 0 0 0 0 0 1 4 7 8
12 14 16 16 15 13 13 13 13 13 13 11 9 9 8 6 5 4 4 3 3 2 2 3 7 8 6 3 2 1 0 0 0 0 0 0 0 0 0 0 1 2 2
11 13 15 17 16 13 12 12 11 12 11 10 8 8 7 6 5 4 5 5 4 3 2 3 7 10 9 5 2 0 0 0 0 0 0 0 0 0 0 0 0 0 0
11 12 14 16 16 15 14 12 9 9 10 10 8 6 5 5 5 5 6 7 6 4 3 3 7 11 10 5 2 1 1 1 1 1 0 0 0 0 0 0 0 0 0
13 14 15 15 15 15 15 12 8 8 9 9 7 6 4 4 5 6 8 9 8 6 5 4 6 10 10 6 3 3 2 1 1 1 1 1 0 0 0 0 0 0 0
16 15 14 14 14 13 13 11 8 8 8 7 6 6 4 6 7 8 10 9 8 8 8 7 8 9 8 5 3 3 2 1 1 1 2 1 0 0 0 0 0 0 0
17 16 14 13 13 12 11 9 7 8 7 6 5 4 5 7 9 9 9 8 7 8 9 9 8 7 4 2 1 1 1 2 1 1 2 2 1 0 0 0 0 0 0
16 16 15 13 12 11 10 8 7 6 6 5 3 2 4 5 6 6 6 6 7 7 7 7 6 3 2 1 1 0 1 1 1 1 2 3 3 2 1 0 0 0 0
14 13 12 11 11 10 9 7 6 5 5 4 3 2 2 1 2 2 3 4 4 4 3 3 2 1 1 3 2 1 1 1 1 3 5 5 5 5 4 2 1 1 0
11 10 9 9 9 8 7 5 4 4 4 5 5 4 2 0 0 0 0 1 1 1 1 1 0 1 2 4 4 2 3 4 5 6 6 6 6 6 6 4 3 2 1
10 9 8 7 8 7 5 3 3 3 5 6 7 6 3 1 0 0 0 0 0 0 0 0 1 1 2 4 5 4 5 7 8 8 6 5 6 6 5 5 3 2 1
10 9 7 7 8 7 4 1 2 4 6 7 6 6 5 3 1 0 0 0 0 0 0 0 1 1 2 3 4 5 6 6 7 7 6 4 4 4 5 5 3 1 0
10 8 7 7 7 6 4 1 1 4 6 6 5 4 5 4 1 0 1 1 1 0 0 0 1 1 1 1 2 3 5 6 6 6 6 4 4 4 6 6 4 2 1
9 7 6 6 6 6 4 1 1 3 4 4 4 4 4 3 1 1 2 2 2 1 0 0 0 0 0 0 0 2 5 7 7 7 7 7 5 5 6 7 6 3 1

GEFSMA_con_prob3kmehi_372.txt.gz
EHI
3 5 7 7 6 6 6 5 5 5 6 4 2 3 4 2 0 1 5 11 14 16 14 10 6 4 4 3 3 3 4 5 5 4 2 0 0 0 0 0 0 0 0
5 7 10 9 8 7 9 9 8 6 6 5 4 5 6 3 2 3 5 9 13 15 15 12 8 7 6 6 5 5 5 6 6 5 2 1 0 0 0 0 0 1 1
9 10 11 10 8 9 13 14 11 8 7 6 6 7 7 7 5 5 6 9 11 12 13 13 13 12 11 10 9 8 8 9 8 6 5 2 1 1 1 0 1 1 2
11 11 12 10 8 10 13 13 11 9 8 8 8 8 9 11 10 7 8 12 12 10 10 13 15 15 14 13 12 11 12 11 10 8 7 6 4 4 3 2 1 1 1
9 10 12 12 10 11 11 10 9 9 9 9 8 8 10 14 14 10 9 12 14 12 10 12 15 15 14 13 14 14 14 13 10 8 8 8 8 7 6 4 2 0 0
8 10 13 14 13 11 10 9 9 8 8 8 7 7 10 15 17 15 11 10 11 11 10 12 14 13 12 12 13 15 15 13 10 8 8 9 8 8 7 5 3 1 0
11 12 13 14 14 12 10 10 10 9 8 7 6 6 8 12 16 17 14 11 8 7 10 12 14 13 11 10 11 12 12 11 9 9 10 10 9 7 6 4 3 2 1
15 14 15 16 15 13 11 11 11 10 7 6 6 6 6 8 10 12 14 12 9 8 9 12 14 14 12 10 9 10 10 10 10 10 11 12 12 10 7 6 5 4 2
19 19 20 21 18 14 12 12 12 11 9 7 7 7 5 4 5 8 11 13 14 13 11 11 14 16 15 14 12 11 11 10 10 11 12 13 14 13 11 9 8 7 7
22 22 23 23 20 16 13 13 14 14 12 9 9 9 5 3 4 7 9 11 14 14 10 10 13 17 18 17 15 13 11 10 10 11 12 11 11 11 11 10 10 10 10
24 23 23 23 20 16 14 14 16 17 15 12 11 10 8 6 7 7 7 10 12 11 10 10 13 18 18 16 15 13 10 9 7 8 9 8 5 4 5 7 8 9 8
26 24 22 21 19 17 15 15 16 18 17 13 11 10 10 10 9 7 6 8 10 11 11 11 14 17 18 17 15 13 10 8 5 4 4 3 1 0 1 2 5 6 6
25 24 22 21 19 16 15 16 18 18 17 13 9 8 9 10 8 7 7 7 8 11 12 11 12 15 18 19 15 11 9 6 3 1 0 0 0 0 0 1 3 5 6
21 22 24 25 22 17 14 17 18 17 14 12 10 9 9 8 7 7 8 8 7 8 9 9 10 12 15 16 13 10 9 6 1 0 0 0 0 0 0 0 1 3 4
19 22 26 27 24 19 15 16 17 15 14 14 13 13 11 8 6 6 7 7 5 4 5 7 9 11 12 12 10 11 11 6 1 0 0 0 0 0 0 0 0 1 1
20 22 24 26 25 22 19 17 15 14 14 13 14 14 13 9 7 6 5 5 4 3 3 6 10 13 13 10 9 12 12 7 2 1 1 0 0 0 0 0 0 0 0
22 23 23 24 24 23 20 16 13 13 12 11 11 12 11 10 8 7 6 5 5 5 5 5 9 14 14 11 10 11 10 7 4 3 2 1 0 0 0 0 0 0 0
24 24 23 24 22 20 18 15 12 11 10 8 7 8 9 9 9 8 7 7 6 6 7 6 8 13 15 13 10 9 8 6 5 4 3 2 0 0 0 0 0 0 0
21 22 22 22 19 17 15 15 13 11 9 7 6 6 8 8 6 5 5 5 5 5 7 7 7 9 11 10 9 8 7 6 4 3 2 1 0 0 0 0 0 0 0
17 19 20 20 17 13 13 14 14 13 11 8 6 6 6 6 4 2 1 2 2 3 4 5 4 4 6 7 7 7 6 5 3 2 1 0 0 0 0 0 0 0 0
16 17 19 19 15 12 11 13 13 13 12 10 8 6 5 5 2 0 0 0 0 1 1 1 1 1 3 5 5 5 5 3 3 2 1 1 0 0 1 0 0 0 0
17 18 19 18 15 12 10 11 11 10 9 10 9 7 6 5 2 1 0 0 0 0 0 0 0 2 4 5 4 3 3 2 2 3 3 3 2 2 1 1 1 0 0
23 22 20 19 16 13 9 8 8 7 6 8 9 9 8 6 4 2 1 1 1 1 0 0 0 2 4 5 4 3 3 2 3 3 3 4 3 3 2 2 1 0 0
27 26 24 22 19 14 8 5 5 5 6 8 10 10 9 8 5 3 3 4 4 2 1 0 0 1 3 4 4 3 2 3 3 3 4 3 3 2 1 1 1 0 0
28 28 27 26 23 15 7 3 2 4 7 8 10 10 9 8 6 4 5 5 5 3 1 0 0 0 1 1 1 1 1 2 3 4 4 3 2 1 0 0 0 0 1
28 27 27 28 25 16 7 3 2 4 6 7 8 9 8 7 5 4 5 5 4 3 2 1 0 0 0 0 0 1 2 2 3 4 4 3 2 1 0 1 1 1 1

GEFSMA_con_prob3kmehi_378.txt.gz
EHI
0 0 0 0 0 0 0 0 0 0 0 0 0 0 0 0 1 1 2 8 18 20 17 15 12 10 8 5 4 4 5 4 4 3 1 1 1 1 0 0 0 0 0
0 0 0 0 0 0 0 0 0 0 0 0 0 0 0 0 0 0 1 6 13 18 20 19 17 14 10 6 4 5 5 5 4 3 2 2 2 2 1 0 0 0 0
0 0 1 1 1 0 0 0 0 0 0 0 0 0 0 0 0 0 0 2 5 11 18 22 23 21 16 9 4 3 3 3 3 3 3 3 4 4 3 2 1 0 0
1 2 3 3 2 1 1 0 0 1 0 0 0 0 0 0 0 0 0 0 0 4 10 16 20 22 19 13 7 4 3 4 4 3 4 6 6 6 5 4 3 1 0
3 4 5 4 3 3 2 1 1 1 1 0 0 0 0 0 0 0 0 0 0 1 3 7 11 15 17 17 13 9 8 7 6 5 5 7 7 6 5 3 2 0 0
6 6 6 4 3 3 3 2 2 2 2 1 0 0 0 0 0 0 0 0 0 0 0 2 4 7 12 16 16 15 12 11 9 7 6 6 6 5 3 1 0 0 0
9 7 5 3 3 3 3 3 3 3 2 1 0 0 0 0 0 0 0 0 0 0 0 0 1 2 4 8 12 14 13 12 10 9 8 6 4 3 2 1 0 0 0
8 6 5 4 3 3 3 3 3 2 2 1 0 0 0 0 0 0 0 0 0 0 0 0 0 1 1 3 6 9 10 11 9 8 7 5 4 3 2 1 0 0 0
6 5 4 3 4 4 4 4 3 2 2 2 1 0 0 0 0 0 0 0 0 0 0 0 1 2 2 2 3 4 6 8 8 6 5 5 5 4 3 3 1 0 0
5 4 3 3 4 5 6 5 4 2 3 2 1 0 1 0 0 0 0 0 0 0 0 0 1 2 2 3 3 3 3 5 6 5 5 6 6 5 5 4 2 0 0
5 5 4 4 3 3 4 5 4 3 3 2 1 0 0 0 0 0 0 0 0 0 0 0 0 1 1 1 3 3 2 3 4 4 5 6 6 6 6 5 2 1 0
4 4 5 5 4 2 3 4 4 3 3 2 1 0 0 0 0 0 0 0 0 0 0 0 0 0 0 1 2 3 3 3 3 3 3 4 5 6 6 5 4 2 1
3 4 5 5 4 3 4 5 4 4 3 1 0 0 0 0 0 0 0 0 0 0 0 0 0 0 0 0 1 2 3 3 3 3 3 3 4 5 6 5 5 3 2
4 5 6 5 3 4 6 6 5 4 3 1 1 0 0 0 0 1 1 1 0 0 0 0 0 0 0 0 0 1 2 2 2 2 3 3 3 4 4 4 4 4 2
4 6 7 5 4 4 6 6 4 4 3 3 2 1 1 0 0 1 2 1 0 0 0 0 0 0 0 0 0 0 1 1 1 1 1 2 3 3 3 3 3 2 1
4 5 6 5 4 5 6 5 3 3 3 3 3 3 2 1 1 1 1 1 0 0 0 0 0 0 0 1 0 0 0 0 0 0 0 1 2 2 2 2 1 1 0
4 4 4 5 5 6 6 5 4 3 3 3 3 3 3 3 2 1 0 0 0 0 1 0 0 0 0 0 0 0 0 0 0 0 0 0 1 1 1 1 0 0 0
5 5 5 5 6 6 6 5 4 3 3 3 3 3 3 3 3 2 1 0 0 0 0 0 0 0 0 0 0 0 0 0 0 0 0 0 0 0 0 0 0 0 0
6 6 7 7 7 7 6 6 4 3 3 3 3 3 3 3 3 3 1 0 0 0 0 0 0 0 0 0 0 0 0 0 0 0 0 0 0 0 0 0 0 0 0
7 7 8 8 8 8 8 8 6 5 4 3 3 3 3 3 3 3 2 1 0 0 0 0 0 0 0 0 0 0 0 0 0 0 0 0 0 0 0 0 0 0 0
7 8 8 8 8 8 8 8 7 6 4 4 3 4 3 3 3 3 2 2 1 0 0 0 0 0 0 0 0 0 0 0 0 0 0 0 0 0 0 0 0 0 0
9 8 9 9 9 8 7 6 5 4 4 3 4 4 4 3 3 1 1 1 1 0 0 0 0 0 0 0 0 0 0 0 0 0 0 0 0 0 0 0 0 0 0
8 9 9 10 9 7 4 3 2 1 2 2 3 3 3 2 2 1 0 0 0 0 0 0 0 0 0 0 0 0 0 0 0 0 0 0 0 0 0 0 0 0 0
6 7 9 8 7 4 2 1 0 0 1 1 1 1 1 1 1 0 0 0 0 0 0 0 0 0 0 0 0 0 0 0 0 0 0 0 0 0 0 0 0 0 0
4 5 6 6 5 3 1 0 0 0 0 0 0 0 0 0 0 0 0 0 0 0 0 0 0 0 0 0 0 0 0 0 0 0 0 0 0 0 0 0 0 0 0
3 4 5 6 5 3 1 0 0 0 0 0 0 0 0 0 0 0 0 0 0 0 0 0 0 0 0 0 0 0 0 0 0 0 0 0 0 0 0 0 0 0 0

GEFSMA_con_prob3kmehi_384.txt.gz
EHI
0 0 0 0 0 0 0 0 0 0 0 0 0 0 0 0 0 0 0 0 1 2 4 4 3 2 1 2 1 1 1 0 0 0 0 0 0 0 0 0 0 0 0
0 0 0 0 0 0 1 1 0 0 0 0 0 0 0 0 0 0 0 0 2 4 5 5 4 3 4 4 3 2 1 0 0 0 0 0 0 0 0 0 0 0 0
0 0 0 0 0 0 1 2 1 0 0 0 0 0 0 0 0 0 0 0 2 4 6 5 4 4 5 4 3 2 2 1 1 1 0 0 0 0 0 0 0 0 0
0 0 0 0 0 0 1 2 1 0 0 0 0 0 0 0 0 0 0 0 1 2 3 2 2 3 3 2 2 3 3 3 2 2 1 1 1 0 0 0 0 0 0
0 1 1 2 1 1 2 1 0 0 0 0 0 0 0 0 0 0 0 0 0 1 1 0 0 1 1 1 1 4 7 6 5 4 3 3 3 1 0 0 0 0 0
1 2 3 3 3 3 3 2 1 0 0 0 0 0 0 0 0 0 0 0 0 0 0 0 0 0 0 0 1 4 6 7 7 6 5 5 5 3 1 0 0 0 0
2 3 3 3 3 2 2 2 2 1 0 0 0 0 0 0 0 0 0 0 0 0 0 0 0 0 0 0 1 1 3 5 6 6 7 7 6 3 1 0 0 0 0
1 2 2 2 1 1 1 1 1 1 0 0 0 0 0 0 0 0 0 0 0 0 0 0 0 0 0 0 0 0 0 1 2 4 6 6 6 4 1 0 0 0 0
2 2 2 1 0 0 0 0 0 0 0 0 0 0 0 0 0 0 0 0 0 0 0 1 0 0 0 0 0 0 0 0 1 2 3 4 5 5 3 2 1 0 0
4 3 2 1 1 0 0 0 0 0 0 0 0 0 0 0 0 0 0 0 0 0 0 0 0 0 0 0 0 0 0 0 0 1 1 2 4 5 5 4 4 2 1
3 3 2 1 1 0 0 0 0 0 0 0 0 0 0 0 0 0 0 0 0 0 0 0 0 0 0 0 0 0 0 0 0 0 0 1 2 4 5 6 6 4 3
1 1 0 1 1 0 0 1 0 0 0 0 1 1 0 0 0 0 0 0 0 0 0 0 0 0 0 0 0 0 0 0 0 0 0 0 1 3 4 6 6 5 4
1 0 1 1 0 0 0 0 0 0 0 0 1 2 1 0 0 0 0 0 0 0 0 0 0 0 0 0 0 0 0 0 0 0 0 0 1 2 3 4 4 5 5
2 2 2 2 1 1 1 1 0 0 0 0 1 2 1 0 0 0 0 0 0 0 0 0 0 0 0 0 0 0 0 0 0 0 0 0 0 1 2 3 3 4 5
3 3 3 3 3 2 2 2 1 1 1 1 1 2 2 1 0 0 0 0 0 0 0 0 0 0 0 0 0 0 0 0 0 0 0 0 0 0 1 2 3 3 4
3 3 3 3 3 3 3 3 3 3 3 3 4 4 3 2 1 1 0 0 0 0 0 0 0 0 0 0 0 0 0 0 0 0 0 0 0 0 0 1 1 2 2
4 3 3 3 3 3 3 3 4 4 5 6 6 5 4 3 3 2 1 1 0 0 0 0 0 0 0 0 0 0 0 0 0 0 0 0 0 0 0 0 0 1 1
5 4 4 4 4 4 3 3 3 4 4 5 5 4 3 3 3 3 3 2 1 1 0 0 0 0 0 0 0 0 0 0 0 0 0 0 0 0 0 0 0 0 0
6 6 6 6 6 5 4 4 3 3 3 3 3 3 3 2 2 2 3 3 3 2 1 1 0 0 0 0 0 0 0 0 0 0 0 0 0 0 0 0 0 0 0
6 6 6 7 7 7 6 5 4 3 3 3 2 1 2 1 0 1 1 2 3 3 3 2 1 0 0 0 0 0 0 0 0 0 0 0 0 0 0 0 0 0 0
6 6 6 6 6 6 6 6 4 3 2 2 2 1 1 0 0 0 0 1 1 2 2 2 1 0 0 0 0 0 0 0 0 0 0 0 0 0 0 0 0 0 0
6 5 4 4 5 5 5 4 2 1 1 1 2 2 1 0 0 0 0 0 0 1 1 1 0 0 0 0 0 0 0 0 0 0 0 0 0 0 0 0 0 0 0
4 4 3 3 4 4 3 1 1 0 0 0 1 1 1 0 0 0 0 0 0 0 0 0 0 0 0 0 0 0 0 0 0 0 0 0 0 0 0 0 0 0 0
3 3 3 3 3 3 1 0 0 0 0 0 0 0 0 0 0 0 0 0 0 0 0 0 0 0 0 0 0 0 0 0 0 0 0 0 0 0 0 0 0 0 0
3 3 3 3 3 2 1 0 0 0 0 0 0 0 0 0 0 0 0 0 0 0 0 0 0 0 0 0 0 0 0 0 0 0 0 0 0 0 0 0 0 0 0
2 3 3 3 2 1 0 0 1 1 1 0 0 0 0 0 0 0 0 0 0 0 0 0 0 0 0 0 0 0 0 0 0 0 0 0 0 0 0 0 0 0 0